When you browse on this site, cookies collect data to enhance your experience and personalize the content and advertising you see.
Visit our Privacy Policy to learn more. By continuing to use the site, you agree to this use of cookies and data.
  • In Lithuania
  • List of Countries
  • For 7 days
  • Water Temperature
  • Satellite Maps
  • Weather Map
  • Weather Widgets
  • user-avatar
    Login

    Hourly Weather Wlora

    Today, 25 June, Tuesday

    Time Temperature Precipitation Wind Pressure Humidity
    00:00 +23°C° 0 mm 6 mps 760 mmHg 82%
    01:00 +23°C° 0 mm 6 mps 760 mmHg 83%
    02:00 +23°C° 0 mm 6 mps 760 mmHg 82%
    03:00 +23°C° 0 mm 6 mps 760 mmHg 82%
    04:00 +22°C° 0 mm 6 mps 759 mmHg 81%
    05:00 +24°C° 0 mm 6 mps 760 mmHg 73%
    06:00 +26°C° 0 mm 5 mps 760 mmHg 65%
    07:00 +28°C° 0 mm 4 mps 760 mmHg 56%
    08:00 +30°C° 0 mm 4 mps 760 mmHg 52%
    09:00 +31°C° 0 mm 3 mps 761 mmHg 48%
    10:00 +34°C° 0 mm 2 mps 761 mmHg 44%
    11:00 +34°C° 0 mm 2 mps 761 mmHg 46%
    12:00 +33°C° 0 mm 3 mps 761 mmHg 48%
    13:00 +33°C° 0 mm 4 mps 761 mmHg 49%
    14:00 +33°C° 0 mm 4 mps 761 mmHg 51%
    15:00 +33°C° 0 mm 5 mps 761 mmHg 54%
    16:00 +32°C° 0 mm 6 mps 761 mmHg 56%
    17:00 +30°C° 0 mm 6 mps 761 mmHg 61%
    18:00 +30°C° 0 mm 6 mps 762 mmHg 66%
    19:00 +29°C° 0 mm 6 mps 762 mmHg 71%
    20:00 +28°C° 0 mm 6 mps 762 mmHg 68%
    21:00 +28°C° 0 mm 6 mps 762 mmHg 66%
    22:00 +28°C° 0 mm 5 mps 762 mmHg 63%
    23:00 +27°C° 0 mm 5 mps 762 mmHg 63%

    Tomorrow, 26 June, Wednesday

    Time Temperature Precipitation Wind Pressure Humidity
    00:00 +27°C° 0 mm 4 mps 763 mmHg 62%
    01:00 +26°C° 0 mm 3 mps 763 mmHg 62%
    02:00 +26°C° 0 mm 3 mps 762 mmHg 62%
    03:00 +26°C° 0 mm 3 mps 762 mmHg 62%
    04:00 +26°C° 0 mm 3 mps 762 mmHg 62%
    05:00 +27°C° 0 mm 3 mps 762 mmHg 59%
    06:00 +28°C° 0 mm 3 mps 762 mmHg 57%
    07:00 +30°C° 0 mm 3 mps 762 mmHg 55%
    08:00 +31°C° 0 mm 3 mps 762 mmHg 51%
    09:00 +33°C° 0 mm 3 mps 762 mmHg 48%
    10:00 +35°C° 0 mm 3 mps 762 mmHg 44%
    11:00 +35°C° 0 mm 3 mps 762 mmHg 43%
    12:00 +36°C° 0 mm 4 mps 762 mmHg 43%
    13:00 +36°C° 0 mm 4 mps 762 mmHg 42%
    14:00 +35°C° 0 mm 5 mps 762 mmHg 46%
    15:00 +34°C° 0 mm 5 mps 762 mmHg 51%
    16:00 +33°C° 0 mm 6 mps 761 mmHg 55%
    17:00 +33°C° 0 mm 6 mps 762 mmHg 59%
    18:00 +32°C° 0 mm 6 mps 762 mmHg 62%
    19:00 +30°C° 0 mm 6 mps 762 mmHg 65%
    20:00 +30°C° 0 mm 5 mps 762 mmHg 63%
    21:00 +29°C° 0 mm 4 mps 762 mmHg 62%
    22:00 +28°C° 0 mm 3 mps 762 mmHg 60%
    23:00 +28°C° 0 mm 3 mps 762 mmHg 61%

    Day after tomorrow, 27 June, Thursday

    Time Temperature Precipitation Wind Pressure Humidity
    00:00 +28°C° 0 mm 3 mps 762 mmHg 62%
    01:00 +27°C° 0 mm 2 mps 762 mmHg 64%
    02:00 +27°C° 0.1 mm 2 mps 762 mmHg 64%
    03:00 +27°C° 0.1 mm 2 mps 762 mmHg 64%
    04:00 +27°C° 0.1 mm 1 mps 761 mmHg 64%
    05:00 +28°C° 0 mm 1 mps 761 mmHg 61%
    06:00 +29°C° 0 mm 1 mps 761 mmHg 59%
    07:00 +30°C° 0 mm 1 mps 761 mmHg 56%
    08:00 +31°C° 0 mm 1 mps 761 mmHg 53%
    09:00 +32°C° 0 mm 2 mps 761 mmHg 51%
    10:00 +32°C° 0 mm 2 mps 761 mmHg 48%
    11:00 +34°C° 0 mm 3 mps 761 mmHg 49%
    12:00 +34°C° 0 mm 3 mps 761 mmHg 50%
    13:00 +34°C° 0 mm 4 mps 760 mmHg 51%
    14:00 +34°C° 0 mm 4 mps 760 mmHg 52%
    15:00 +33°C° 0 mm 5 mps 760 mmHg 53%
    16:00 +33°C° 0 mm 5 mps 759 mmHg 54%
    17:00 +32°C° 0 mm 5 mps 759 mmHg 58%
    18:00 +30°C° 0 mm 5 mps 759 mmHg 61%
    19:00 +29°C° 0 mm 5 mps 759 mmHg 65%
    20:00 +28°C° 0 mm 5 mps 759 mmHg 67%
    21:00 +27°C° 0 mm 5 mps 759 mmHg 69%
    22:00 +27°C° 0 mm 5 mps 759 mmHg 71%
    23:00 +26°C° 0 mm 5 mps 759 mmHg 72%

    28 June, Friday

    Time Temperature Precipitation Wind Pressure Humidity
    00:00 +26°C° 0 mm 5 mps 759 mmHg 73%
    01:00 +26°C° 0 mm 5 mps 758 mmHg 73%
    02:00 +26°C° 0 mm 5 mps 758 mmHg 72%
    03:00 +26°C° 0 mm 4 mps 758 mmHg 72%
    04:00 +25°C° 0 mm 4 mps 757 mmHg 71%
    05:00 +27°C° 0 mm 4 mps 757 mmHg 66%
    06:00 +28°C° 0 mm 4 mps 757 mmHg 60%
    07:00 +29°C° 0 mm 4 mps 757 mmHg 55%
    08:00 +32°C° 0 mm 4 mps 757 mmHg 49%
    09:00 +33°C° 0 mm 4 mps 757 mmHg 44%
    10:00 +35°C° 0 mm 4 mps 757 mmHg 38%
    11:00 +35°C° 0 mm 5 mps 757 mmHg 39%
    12:00 +36°C° 0 mm 5 mps 757 mmHg 40%
    13:00 +36°C° 0 mm 5 mps 756 mmHg 41%
    14:00 +35°C° 0 mm 6 mps 756 mmHg 44%
    15:00 +35°C° 0 mm 6 mps 756 mmHg 48%
    16:00 +34°C° 0 mm 7 mps 755 mmHg 51%
    17:00 +33°C° 0 mm 7 mps 756 mmHg 56%
    18:00 +30°C° 0 mm 6 mps 756 mmHg 61%
    19:00 +29°C° 0 mm 6 mps 756 mmHg 65%
    20:00 +28°C° 0 mm 6 mps 756 mmHg 66%
    21:00 +28°C° 0 mm 5 mps 756 mmHg 67%
    22:00 +27°C° 0 mm 5 mps 757 mmHg 68%
    23:00 +27°C° 0 mm 5 mps 757 mmHg 65%

    29 June, Saturday

    Time Temperature Precipitation Wind Pressure Humidity
    00:00 +27°C° 0 mm 4 mps 757 mmHg 62%
    01:00 +26°C° 0 mm 4 mps 757 mmHg 60%
    02:00 +26°C° 0 mm 4 mps 757 mmHg 62%
    03:00 +26°C° 0 mm 4 mps 757 mmHg 64%
    04:00 +25°C° 0 mm 5 mps 756 mmHg 66%
    05:00 +26°C° 0 mm 4 mps 757 mmHg 62%
    06:00 +27°C° 0 mm 4 mps 757 mmHg 58%
    07:00 +28°C° 0 mm 3 mps 757 mmHg 53%
    08:00 +30°C° 0 mm 3 mps 758 mmHg 49%
    09:00 +32°C° 0 mm 4 mps 758 mmHg 45%
    10:00 +33°C° 0 mm 4 mps 758 mmHg 41%
    11:00 +33°C° 0 mm 4 mps 758 mmHg 42%
    12:00 +33°C° 0 mm 5 mps 758 mmHg 43%
    13:00 +34°C° 0 mm 5 mps 758 mmHg 44%
    14:00 +33°C° 0 mm 6 mps 758 mmHg 44%
    15:00 +33°C° 0 mm 6 mps 758 mmHg 44%
    16:00 +33°C° 0 mm 7 mps 758 mmHg 44%
    17:00 +30°C° 0 mm 7 mps 758 mmHg 51%
    18:00 +29°C° 0 mm 8 mps 758 mmHg 58%
    19:00 +27°C° 0 mm 8 mps 759 mmHg 65%
    20:00 +27°C° 0 mm 8 mps 759 mmHg 64%
    21:00 +27°C° 0 mm 7 mps 760 mmHg 64%
    22:00 +26°C° 0 mm 6 mps 760 mmHg 64%
    23:00 +26°C° 0 mm 5 mps 760 mmHg 62%

    30 June, Sunday

    Time Temperature Precipitation Wind Pressure Humidity
    00:00 +26°C° 0 mm 4 mps 760 mmHg 60%
    01:00 +26°C° 0 mm 3 mps 760 mmHg 58%
    02:00 +25°C° 0 mm 3 mps 760 mmHg 58%
    03:00 +25°C° 0 mm 3 mps 760 mmHg 58%
    04:00 +25°C° 0 mm 2 mps 760 mmHg 59%
    05:00 +26°C° 0 mm 2 mps 761 mmHg 56%
    06:00 +27°C° 0 mm 2 mps 761 mmHg 54%
    07:00 +28°C° 0 mm 2 mps 761 mmHg 52%
    08:00 +29°C° 0 mm 2 mps 762 mmHg 50%
    09:00 +30°C° 0 mm 1 mps 762 mmHg 47%
    10:00 +31°C° 0 mm 1 mps 762 mmHg 45%
    11:00 +31°C° 0 mm 2 mps 762 mmHg 47%
    12:00 +31°C° 0 mm 2 mps 762 mmHg 49%
    13:00 +31°C° 0 mm 2 mps 762 mmHg 51%
    14:00 +31°C° 0 mm 3 mps 762 mmHg 53%
    15:00 +30°C° 0 mm 3 mps 761 mmHg 55%
    16:00 +30°C° 0 mm 4 mps 761 mmHg 57%
    17:00 +29°C° 0 mm 4 mps 761 mmHg 60%
    18:00 +28°C° 0 mm 4 mps 762 mmHg 63%
    19:00 +27°C° 0 mm 5 mps 762 mmHg 67%
    20:00 +26°C° 0 mm 4 mps 762 mmHg 68%
    21:00 +26°C° 0 mm 4 mps 762 mmHg 69%
    22:00 +25°C° 0 mm 4 mps 763 mmHg 70%
    23:00 +25°C° 0 mm 4 mps 762 mmHg 69%
    Show more